Location: Sternwarte ZA, Rosenfeld-Brittheim
(48.2889°N, 8.6789°E)
Time: 01:11:24
(UTC+02:00)

ISS - Pass Details

Date: 12 July 2018
Orbit: 402 x 408 km, 51.6° (Epoch: 18 July)

Event Time Altitude Azimuth Distance (km) Brightness Sun altitude
Exits shadow 02:48:33 59° 189° (S) 475 -3.9 -17.6°
Maximum altitude 02:48:53 64° 153° (SSE) 453 -3.9 -17.6°
Drops below altitude 10° 02:52:09 10° 71° (ENE) 1,472 -0.5 -17.4°
Sets 02:54:15 0° 68° (ENE) 2,336 0.7 -17.3°
